Starlink 32004

operational
NORAD ID: 60151 Int'l Des: 2024-120 Owner: SPXS Country: US Constellation: starlink
LEOCIRCULAR

关于 Starlink 32004

正在加载描述...

实时位置

正在加载3D地球...

即将过境

高度历史

Altitude vs Time

uPlot chart will show altitude changes over time

两行轨道根数

1 60151U 24120S 25351.30156477 -.00001511 00000-0 -38908-4 0 9993
2 60151 53.1615 342.5022 0001308 82.6203 277.4947 15.30198615 83849
Epoch: Dec 17, 2025 • Age: 14 hours

当前状态

高度 494.1 km
速度 7.62 km/s
星下点 -51.89°S, 133.71°W
发射日期 Jun 27, 2024
运行时间 1.4 years
类型 internet

技术详情

分类 Payload
质量 730.00 kg
干质量 700.00 kg
总质量 730.00 kg
长度 0.30 m
直径 4.10 m
跨度 29.00 m
形状 Box + pan
制造商 SPXS
平台类型 Starlink V2M
阶段状态 In Orbit
所有者/国家 SPXS/US

大型星座

Loading constellations...